When you browse on this site, cookies collect data to enhance your experience and personalize the content and advertising you see.
Visit our Privacy Policy to learn more. By continuing to use the site, you agree to this use of cookies and data.
  • In Lithuania
  • List of Countries
  • For 7 days
  • Water Temperature
  • Satellite Maps
  • Weather Map
  • Weather Widgets
  • user-avatar
    Login

    Hourly Weather Soldatskaya

    Today, 18 March, Monday

    Time Temperature Precipitation Wind Pressure Humidity
    00:00 +5°C° 0.5 mm 4 mps 739 mmHg 87%
    01:00 +5°C° 0.2 mm 3 mps 739 mmHg 86%
    02:00 +5°C° 0.2 mm 3 mps 740 mmHg 85%
    03:00 +5°C° 0 mm 4 mps 740 mmHg 83%
    04:00 +4°C° 0.2 mm 3 mps 740 mmHg 82%
    05:00 +5°C° 0.2 mm 2 mps 741 mmHg 80%
    06:00 +5°C° 0.2 mm 2 mps 741 mmHg 78%
    07:00 +6°C° 0.1 mm 2 mps 742 mmHg 73%
    08:00 +6°C° 0.1 mm 2 mps 742 mmHg 69%
    09:00 +7°C° 0 mm 2 mps 742 mmHg 65%
    10:00 +7°C° 0.1 mm 2 mps 742 mmHg 61%
    11:00 +8°C° 0.1 mm 2 mps 742 mmHg 58%
    12:00 +9°C° 0.1 mm 2 mps 742 mmHg 54%
    13:00 +9°C° 0 mm 2 mps 743 mmHg 52%
    14:00 +10°C° 0 mm 2 mps 743 mmHg 50%
    15:00 +9°C° 0 mm 2 mps 743 mmHg 49%
    16:00 +10°C° 0 mm 1 mps 743 mmHg 51%
    17:00 +10°C° 0 mm 1 mps 743 mmHg 54%
    18:00 +10°C° 0 mm 1 mps 744 mmHg 57%
    19:00 +9°C° 0 mm 1 mps 744 mmHg 60%
    20:00 +8°C° 0 mm 1 mps 745 mmHg 62%
    21:00 +8°C° 0 mm 1 mps 745 mmHg 65%
    22:00 +7°C° 0 mm 1 mps 745 mmHg 65%
    23:00 +7°C° 0 mm 1 mps 745 mmHg 65%

    Tomorrow, 19 March, Tuesday

    Time Temperature Precipitation Wind Pressure Humidity
    00:00 +6°C° 0 mm 1 mps 745 mmHg 65%
    01:00 +6°C° 0 mm 1 mps 745 mmHg 66%
    02:00 +6°C° 0 mm 1 mps 745 mmHg 66%
    03:00 +5°C° 0 mm 1 mps 745 mmHg 67%
    04:00 +5°C° 0 mm 1 mps 745 mmHg 68%
    05:00 +5°C° 0 mm 1 mps 745 mmHg 70%
    06:00 +4°C° 0 mm 1 mps 745 mmHg 71%
    07:00 +6°C° 0 mm 1 mps 745 mmHg 66%
    08:00 +7°C° 0 mm 1 mps 745 mmHg 62%
    09:00 +8°C° 0 mm 1 mps 745 mmHg 57%
    10:00 +9°C° 0 mm 1 mps 745 mmHg 53%
    11:00 +10°C° 0 mm 2 mps 745 mmHg 50%
    12:00 +12°C° 0 mm 2 mps 744 mmHg 46%
    13:00 +12°C° 0 mm 2 mps 744 mmHg 45%
    14:00 +12°C° 0 mm 3 mps 744 mmHg 45%
    15:00 +12°C° 0 mm 3 mps 744 mmHg 44%
    16:00 +12°C° 0 mm 3 mps 744 mmHg 49%
    17:00 +11°C° 0 mm 3 mps 744 mmHg 54%
    18:00 +10°C° 0 mm 3 mps 744 mmHg 59%
    19:00 +9°C° 0 mm 3 mps 744 mmHg 64%
    20:00 +8°C° 0 mm 3 mps 744 mmHg 70%
    21:00 +7°C° 0 mm 3 mps 745 mmHg 75%
    22:00 +7°C° 0 mm 2 mps 744 mmHg 77%
    23:00 +6°C° 0 mm 2 mps 744 mmHg 80%

    Day after tomorrow, 20 March, Wednesday

    Time Temperature Precipitation Wind Pressure Humidity
    00:00 +6°C° 0 mm 2 mps 744 mmHg 82%
    01:00 +5°C° 0 mm 2 mps 744 mmHg 83%
    02:00 +5°C° 0 mm 2 mps 744 mmHg 84%
    03:00 +4°C° 0 mm 2 mps 743 mmHg 85%
    04:00 +4°C° 0 mm 2 mps 743 mmHg 84%
    05:00 +4°C° 0 mm 2 mps 743 mmHg 84%
    06:00 +4°C° 0 mm 1 mps 743 mmHg 84%
    07:00 +5°C° 0 mm 2 mps 743 mmHg 78%
    08:00 +6°C° 0 mm 2 mps 743 mmHg 72%
    09:00 +7°C° 0 mm 2 mps 743 mmHg 66%
    10:00 +9°C° 0 mm 3 mps 742 mmHg 61%
    11:00 +10°C° 0 mm 3 mps 742 mmHg 56%
    12:00 +11°C° 0 mm 3 mps 742 mmHg 51%
    13:00 +12°C° 0 mm 3 mps 742 mmHg 49%
    14:00 +13°C° 0 mm 3 mps 741 mmHg 47%
    15:00 +13°C° 0 mm 3 mps 741 mmHg 45%
    16:00 +12°C° 0 mm 3 mps 741 mmHg 49%
    17:00 +12°C° 0 mm 3 mps 741 mmHg 53%
    18:00 +11°C° 0 mm 3 mps 742 mmHg 56%
    19:00 +10°C° 0 mm 2 mps 742 mmHg 60%
    20:00 +8°C° 0 mm 2 mps 742 mmHg 64%
    21:00 +7°C° 0 mm 2 mps 743 mmHg 68%
    22:00 +8°C° 0 mm 1 mps 742 mmHg 70%
    23:00 +7°C° 0 mm 1 mps 742 mmHg 72%

    21 March, Thursday

    Time Temperature Precipitation Wind Pressure Humidity
    00:00 +7°C° 0 mm 1 mps 742 mmHg 75%
    01:00 +6°C° 0 mm 1 mps 742 mmHg 76%
    02:00 +5°C° 0 mm 0 mps 742 mmHg 78%
    03:00 +5°C° 0 mm 0 mps 742 mmHg 80%
    04:00 +4°C° 0 mm 0 mps 742 mmHg 81%
    05:00 +4°C° 0 mm 0 mps 742 mmHg 81%
    06:00 +4°C° 0 mm 0 mps 742 mmHg 82%
    07:00 +6°C° 0 mm 0 mps 742 mmHg 75%
    08:00 +7°C° 0 mm 0 mps 742 mmHg 69%
    09:00 +9°C° 0 mm 0 mps 742 mmHg 62%
    10:00 +10°C° 0 mm 0 mps 742 mmHg 57%
    11:00 +13°C° 0 mm 1 mps 742 mmHg 53%
    12:00 +14°C° 0 mm 1 mps 741 mmHg 48%
    13:00 +15°C° 0 mm 2 mps 741 mmHg 46%
    14:00 +16°C° 0 mm 2 mps 741 mmHg 44%
    15:00 +16°C° 0 mm 3 mps 741 mmHg 42%
    16:00 +16°C° 0 mm 2 mps 741 mmHg 45%
    17:00 +15°C° 0 mm 2 mps 741 mmHg 48%
    18:00 +14°C° 0 mm 2 mps 741 mmHg 51%
    19:00 +14°C° 0.1 mm 2 mps 741 mmHg 55%
    20:00 +13°C° 0.1 mm 2 mps 741 mmHg 59%
    21:00 +12°C° 0.1 mm 2 mps 741 mmHg 63%
    22:00 +11°C° 0.4 mm 3 mps 741 mmHg 66%
    23:00 +10°C° 0.4 mm 3 mps 741 mmHg 70%

    22 March, Friday

    Time Temperature Precipitation Wind Pressure Humidity
    00:00 +8°C° 0.4 mm 4 mps 741 mmHg 73%
    01:00 +8°C° 0.6 mm 4 mps 741 mmHg 75%
    02:00 +7°C° 0.6 mm 5 mps 741 mmHg 76%
    03:00 +7°C° 0.6 mm 5 mps 741 mmHg 78%
    04:00 +6°C° 0.5 mm 5 mps 741 mmHg 75%
    05:00 +6°C° 0.5 mm 5 mps 741 mmHg 71%
    06:00 +5°C° 0.5 mm 5 mps 741 mmHg 68%
    07:00 +5°C° 0.4 mm 5 mps 741 mmHg 68%
    08:00 +5°C° 0.4 mm 5 mps 741 mmHg 67%
    09:00 +3°C° 0.4 mm 5 mps 741 mmHg 67%
    10:00 +5°C° 0.6 mm 5 mps 741 mmHg 66%
    11:00 +5°C° 0.6 mm 5 mps 741 mmHg 65%
    12:00 +5°C° 0.6 mm 4 mps 741 mmHg 64%
    13:00 +5°C° 0.2 mm 5 mps 741 mmHg 61%
    14:00 +5°C° 0.2 mm 5 mps 741 mmHg 59%
    15:00 +5°C° 0.2 mm 5 mps 741 mmHg 56%
    16:00 +5°C° 0 mm 4 mps 742 mmHg 59%
    17:00 +4°C° 0 mm 4 mps 742 mmHg 63%
    18:00 +4°C° 0 mm 4 mps 743 mmHg 66%
    19:00 +3°C° 0 mm 4 mps 743 mmHg 68%
    20:00 +3°C° 0 mm 4 mps 744 mmHg 70%
    21:00 +3°C° 0 mm 4 mps 744 mmHg 72%
    22:00 +3°C° 0 mm 3 mps 744 mmHg 73%
    23:00 +2°C° 0 mm 3 mps 744 mmHg 74%

    23 March, Saturday

    Time Temperature Precipitation Wind Pressure Humidity
    00:00 +2°C° 0 mm 3 mps 744 mmHg 75%
    01:00 +2°C° 0 mm 3 mps 744 mmHg 76%
    02:00 +2°C° 0 mm 3 mps 745 mmHg 76%
    03:00 +3°C° 0 mm 2 mps 745 mmHg 77%
    04:00 +2°C° 0 mm 2 mps 745 mmHg 77%
    05:00 +2°C° 0 mm 2 mps 745 mmHg 76%
    06:00 +2°C° 0 mm 2 mps 745 mmHg 75%
    07:00 +3°C° 0 mm 2 mps 745 mmHg 68%
    08:00 +4°C° 0 mm 2 mps 745 mmHg 61%
    09:00 +5°C° 0 mm 2 mps 745 mmHg 54%
    10:00 +6°C° 0 mm 2 mps 744 mmHg 50%
    11:00 +7°C° 0 mm 3 mps 744 mmHg 45%
    12:00 +8°C° 0 mm 3 mps 743 mmHg 41%
    13:00 +9°C° 0 mm 3 mps 743 mmHg 39%
    14:00 +8°C° 0 mm 4 mps 742 mmHg 37%
    15:00 +10°C° 0 mm 4 mps 741 mmHg 34%
    16:00 +9°C° 0 mm 3 mps 741 mmHg 39%
    17:00 +9°C° 0 mm 2 mps 741 mmHg 44%
    18:00 +9°C° 0 mm 1 mps 741 mmHg 49%
    19:00 +8°C° 0.2 mm 2 mps 741 mmHg 54%
    20:00 +7°C° 0.2 mm 2 mps 740 mmHg 58%
    21:00 +7°C° 0.2 mm 2 mps 740 mmHg 63%
    22:00 +7°C° 0.2 mm 2 mps 740 mmHg 63%
    23:00 +6°C° 0.2 mm 2 mps 739 mmHg 63%
    Show more